Morris, MN

11:30 AM CDT on August 20, 2017 (GMT -0500)
Morris Municipal

Weather History for KMOX - March, 2013

Change the Weather History Date:

Friday, March 22, 2013

  Actual Average Record
Temperature  
Mean Temperature 10 °F -  
Max Temperature 23 °F 38 °F 62 °F (2003)
Min Temperature -2 °F 20 °F -2 °F (2013)
Degree Days  
Heating Degree Days 54    
Moisture  
Dew Point 5 °F    
Average Humidity 81    
Maximum Humidity 92    
Minimum Humidity 68    
Precipitation  
Precipitation 0.00 in - - ()
Sea Level Pressure  
Sea Level Pressure 30.06 in    
Wind  
Wind Speed 3 mph (NNW)    
Max Wind Speed 7 mph    
Max Gust Speed -    
Visibility 10 miles    
Events      
Averages and records for this station are not official NWS values.
T = Trace of Precipitation, MM = Missing Value Source: NWS Daily Summary

Daily Weather History Graph

Daily Weather History Graph

Search for Another Location

Airport or City:

Trip Planner

Search our weather history database for the weather conditions in past years. The results will help you decide how hot, cold, wet, or windy it might be!

Date:

Astronomy

Mar. 22, 2013 Rise Set
Actual Time 7:22 AM CDT 7:39 PM CDT
Civil Twilight 6:53 AM CDT 8:09 PM CDT
Nautical Twilight 6:18 AM CDT 8:44 PM CDT
Astronomical Twilight 5:42 AM CDT 9:20 PM CDT
Moon 2:55 PM CDT (3/22) 4:36 AM CDT (3/22)
Length of Visible Light 13h 16m
Length of Day
12h 16m
Waxing Gibbous, 77% of the Moon is Illuminated
Mar 22
Waxing Gibbous
Mar 27
Full
Apr 2
Last Quarter
Apr 10
New
Apr 18
First Quarter

Hourly Weather History & Observations

Time (CDT) Temp. Windchill Dew Point Humidity Pressure Visibility Wind Dir Wind Speed Gust Speed Precip Events Conditions
12:10 AM 1.4 °F -8.3 °F -0.4 °F 92% 30.08 in 10.0 mi NW 4.6 mph - N/A   Clear
12:30 AM 1.4 °F -8.3 °F -0.4 °F 92% 30.09 in 10.0 mi WNW 4.6 mph - N/A   Clear
12:50 AM 1.4 °F -9.9 °F -2.2 °F 85% 30.09 in 10.0 mi WNW 5.8 mph - N/A   Clear
1:10 AM 3.2 °F -9.1 °F 1.4 °F 92% 30.09 in 10.0 mi North 6.9 mph - N/A   Clear
1:30 AM 3.2 °F -4.2 °F 1.4 °F 92% 30.09 in 10.0 mi NNW 3.5 mph - N/A   Clear
1:50 AM -0.4 °F -10.4 °F -4.0 °F 85% 30.09 in 10.0 mi NW 4.6 mph - N/A   Clear
2:10 AM 1.4 °F -8.3 °F -0.4 °F 92% 30.08 in 10.0 mi North 4.6 mph - N/A   Clear
2:30 AM -0.4 °F -10.4 °F -2.2 °F 92% 30.07 in 10.0 mi North 4.6 mph - N/A   Clear
2:50 AM -0.4 °F - -2.2 °F 92% 30.07 in 10.0 mi Calm Calm - N/A   Clear
3:10 AM -0.4 °F - -4.0 °F 85% 30.07 in 10.0 mi Calm Calm - N/A   Clear
3:30 AM -0.4 °F - -2.2 °F 92% 30.07 in 10.0 mi Calm Calm - N/A   Clear
3:50 AM -0.4 °F - -5.8 °F 78% 30.06 in 10.0 mi Calm Calm - N/A   Clear
4:10 AM -0.4 °F - -4.0 °F 85% 30.06 in 10.0 mi Calm Calm - N/A   Clear
4:30 AM -2.2 °F - -5.8 °F 85% 30.06 in 10.0 mi Calm Calm - N/A   Clear
4:50 AM -0.4 °F - -2.2 °F 92% 30.05 in 10.0 mi Calm Calm - N/A   Clear
5:10 AM -2.2 °F - -5.8 °F 85% 30.05 in 10.0 mi Calm Calm - N/A   Clear
5:30 AM -0.4 °F - -4.0 °F 85% 30.05 in 10.0 mi Calm Calm - N/A   Clear
5:50 AM -0.4 °F - -4.0 °F 85% 30.05 in 10.0 mi Calm Calm - N/A   Clear
6:10 AM -0.4 °F - -4.0 °F 85% 30.05 in 10.0 mi Calm Calm - N/A   Clear
6:30 AM -2.2 °F - -7.6 °F 78% 30.06 in 10.0 mi Calm Calm - N/A   Clear
6:50 AM -2.2 °F - -5.8 °F 85% 30.06 in 10.0 mi Calm Calm - N/A   Clear
7:10 AM -0.4 °F - -4.0 °F 85% 30.06 in 10.0 mi Calm Calm - N/A   Clear
7:30 AM -2.2 °F - -5.8 °F 85% 30.06 in 10.0 mi Calm Calm - N/A   Clear
7:50 AM -2.2 °F - -5.8 °F 85% 30.06 in 10.0 mi Calm Calm - N/A   Clear
8:10 AM -2.2 °F - -7.6 °F 78% 30.06 in 10.0 mi Calm Calm - N/A   Clear
8:30 AM -2.2 °F - -5.8 °F 85% 30.06 in 10.0 mi Calm Calm - N/A   Clear
8:50 AM -0.4 °F -10.4 °F -4.0 °F 85% 30.06 in 10.0 mi West 4.6 mph - N/A   Clear
9:10 AM -0.4 °F -10.4 °F -2.2 °F 92% 30.05 in 7.0 mi NW 4.6 mph - N/A   Clear
9:30 AM 1.4 °F -6.2 °F -2.2 °F 85% 30.05 in 10.0 mi NW 3.5 mph - N/A   Clear
9:50 AM 3.2 °F -6.2 °F -0.4 °F 85% 30.05 in 10.0 mi NW 4.6 mph - N/A   Clear
10:10 AM 3.2 °F -6.2 °F -0.4 °F 85% 30.04 in 10.0 mi NW 4.6 mph - N/A   Clear
10:30 AM 6.8 °F -0.1 °F 1.4 °F 79% 30.04 in 10.0 mi NNW 3.5 mph - N/A   Clear
10:50 AM 6.8 °F -0.1 °F 1.4 °F 79% 30.04 in 5.0 mi NW 3.5 mph - N/A   Haze
11:10 AM 10.4 °F 4.0 °F 3.2 °F 73% 30.04 in 10.0 mi NNW 3.5 mph - N/A   Clear
11:30 AM 10.4 °F 2.2 °F 5.0 °F 79% 30.04 in 10.0 mi NNW 4.6 mph - N/A   Clear
11:50 AM 12.2 °F - 6.8 °F 79% 30.04 in 10.0 mi Calm Calm - N/A   Clear
12:10 PM 14.0 °F 8.2 °F 8.6 °F 79% 30.05 in 10.0 mi North 3.5 mph - N/A   Clear
12:30 PM 15.8 °F - 8.6 °F 73% 30.05 in 10.0 mi Calm Calm - N/A   Clear
12:50 PM 17.6 °F - 10.4 °F 73% 30.05 in 10.0 mi Calm Calm - N/A   Clear
1:10 PM 19.4 °F - 10.4 °F 68% 30.05 in 10.0 mi Calm Calm - N/A   Clear
1:30 PM 21.2 °F - 12.2 °F 68% 30.06 in 10.0 mi Calm Calm - N/A   Clear
1:50 PM 21.2 °F 16.4 °F 12.2 °F 68% 30.06 in 10.0 mi WNW 3.5 mph - N/A   Clear
2:10 PM 21.2 °F 16.4 °F 12.2 °F 68% 30.06 in 10.0 mi WNW 3.5 mph - N/A   Clear
2:30 PM 23.0 °F 15.8 °F 14.0 °F 68% 30.06 in 10.0 mi WNW 5.8 mph - N/A   Clear
2:50 PM 21.2 °F 12.6 °F 12.2 °F 68% 30.05 in 10.0 mi WNW 6.9 mph - N/A   Clear
3:10 PM 21.2 °F 13.6 °F 14.0 °F 74% 30.05 in 10.0 mi NW 5.8 mph - N/A   Clear
3:30 PM 21.2 °F 13.6 °F 12.2 °F 68% 30.05 in 10.0 mi NW 5.8 mph - N/A   Clear
3:50 PM 21.2 °F 13.6 °F 14.0 °F 74% 30.05 in 10.0 mi NW 5.8 mph - N/A   Clear
4:10 PM 21.2 °F 14.9 °F 14.0 °F 74% 30.05 in 10.0 mi WNW 4.6 mph - N/A   Clear
4:29 PM 21.2 °F 14.9 °F 12.2 °F 68% 30.04 in 10.0 mi NNW 4.6 mph - N/A   Clear
4:50 PM 21.2 °F 14.9 °F 12.2 °F 68% 30.05 in 10.0 mi NNW 4.6 mph - N/A   Clear
5:10 PM 21.2 °F 13.6 °F 14.0 °F 74% 30.05 in 10.0 mi North 5.8 mph - N/A   Clear
5:30 PM 21.2 °F 13.6 °F 14.0 °F 74% 30.05 in 10.0 mi North 5.8 mph - N/A   Clear
5:50 PM 21.2 °F 14.9 °F 14.0 °F 74% 30.05 in 10.0 mi North 4.6 mph - N/A   Clear
6:09 PM 19.4 °F 14.3 °F 14.0 °F 80% 30.05 in 10.0 mi NNW 3.5 mph - N/A   Clear
6:30 PM 19.4 °F 12.8 °F 14.0 °F 80% 30.06 in 10.0 mi NW 4.6 mph - N/A   Clear
6:50 PM 19.4 °F 12.8 °F 12.2 °F 74% 30.06 in 10.0 mi NNW 4.6 mph - N/A   Clear
7:10 PM 19.4 °F 11.5 °F 14.0 °F 80% 30.06 in 10.0 mi North 5.8 mph - N/A   Clear
7:30 PM 19.4 °F 11.5 °F 14.0 °F 80% 30.06 in 10.0 mi North 5.8 mph - N/A   Clear
7:50 PM 19.4 °F 12.8 °F 14.0 °F 80% 30.07 in 10.0 mi North 4.6 mph - N/A   Scattered Clouds
8:10 PM 19.4 °F 14.3 °F 14.0 °F 80% 30.07 in 10.0 mi North 3.5 mph - N/A   Mostly Cloudy
8:30 PM 17.6 °F 10.7 °F 12.2 °F 79% 30.08 in 10.0 mi NNW 4.6 mph - N/A   Scattered Clouds
8:50 PM 17.6 °F 10.7 °F 12.2 °F 79% 30.08 in 10.0 mi North 4.6 mph - N/A   Clear
9:10 PM 17.6 °F 9.3 °F 12.2 °F 79% 30.08 in 10.0 mi NNE 5.8 mph - N/A   Mostly Cloudy
9:30 PM 17.6 °F 12.3 °F 12.2 °F 79% 30.09 in 10.0 mi North 3.5 mph - N/A   Mostly Cloudy
9:50 PM 17.6 °F 10.7 °F 12.2 °F 79% 30.09 in 10.0 mi North 4.6 mph - N/A   Mostly Cloudy
10:10 PM 17.6 °F 10.7 °F 12.2 °F 79% 30.09 in 10.0 mi North 4.6 mph - N/A   Mostly Cloudy
10:30 PM 15.8 °F 10.2 °F 12.2 °F 86% 30.10 in 10.0 mi NW 3.5 mph - N/A   Scattered Clouds
10:50 PM 15.8 °F 10.2 °F 10.4 °F 79% 30.10 in 10.0 mi NW 3.5 mph - N/A   Mostly Cloudy
11:10 PM 15.8 °F 10.2 °F 10.4 °F 79% 30.09 in 10.0 mi NNW 3.5 mph - N/A   Overcast
11:29 PM 12.2 °F 4.3 °F 8.6 °F 85% 30.09 in 10.0 mi North 4.6 mph - N/A   Scattered Clouds
11:50 PM 12.2 °F 6.1 °F 8.6 °F 85% 30.08 in 10.0 mi NNW 3.5 mph - N/A   Clear